Regional Weather Roundup
Issued by NWS

Home | Current Version | Previous Version | Graphics & Text | Print | Product List | Glossary On
Versions: 1 2 3 4 5 6 7 8 9 10 11 12 13 14 15 16 17 18 19 20 21 22 23 24 25 26 27 28 29 30 31 32 33 34 35 36 37 38 39 40 41 42 43 44 45 46 47 48 49 50
000
ASUS43 KLMK 260202
RWRKY
KENTUCKY REGIONAL WEATHER ROUNDUP
NATIONAL WEATHER SERVICE LOUISVILLE KY
1000 PM EDT SUN SEP 25 2016

NOTE "FAIR" INDICATES FEW OR NO CLOUDS BELOW 12,000 FEET
WITH NO SIGNIFICANT WEATHER AND/OR OBSTRUCTIONS TO VISIBILITY.

KYZ001>023-026-027-061>063-070>075-260300-
WESTERN AND SOUTH CENTRAL KENTUCKY

CITY           SKY/WX    TMP DP  RH WIND       PRES   REMARKS
PADUCAH        CLEAR     76  68  76 CALM      30.01R
HENDERSON      CLEAR     73  64  73 CALM      30.01R
OWENSBORO      CLEAR    N/A N/A N/A VRB3      30.01R
HOPKINSVILLE   CLEAR     76  65  70 CALM      30.03R
BOWLING GREEN  CLEAR     74  67  78 CALM      30.03R
GLASGOW        CLEAR     69  69 100 CALM      30.04R
$$

KYZ024-025-028>034-038-045-046-053-260300-
NORTH CENTRAL KENTUCKY

CITY           SKY/WX    TMP DP  RH WIND       PRES   REMARKS
LOUISVILLE/SDF CLEAR     80  64  58 S3        30.01R
LOUISVILLE/LOU CLEAR     78  66  66 CALM      30.02R
FORT KNOX      CLEAR     71  66  85 CALM      30.02R
$$

KYZ035>037-039>044-047>052-055>060-089>105-260300-
NORTHEAST KENTUCKY

CITY           SKY/WX    TMP DP  RH WIND       PRES   REMARKS
LEXINGTON      CLEAR     72  65  78 CALM      30.05S
COVINGTON      CLEAR     73  65  75 SE3       30.04S
FRANKFORT      CLEAR     73  65  75 CALM      30.03R
$$

KYZ054-064>069-076>088-106>120-260300-
SOUTHEAST KENTUCKY

CITY           SKY/WX    TMP DP  RH WIND       PRES   REMARKS
JACKSON        CLEAR     75  65  70 CALM      30.09R
LONDON         CLEAR     71  65  81 CALM      30.08R
SOMERSET       CLEAR     70  64  83 CALM      30.08R
MIDDLESBORO    CLEAR     71  67  89 CALM      30.09S
MONTICELLO     CLEAR     66  63  90 N9        30.08R
$$




USA.gov is the U.S. government's official web portal to all federal, state and local government web resources and services.